Content
SEND FEEDBACK

Daily
Averages
Monthly
Summary
United States of America

GREENSBURG, INDIANA


Home > North America > United States > Indiana
Elevation: 949 feet     Latitude: 39 20N     Longitude: 085 28W

WEATHER
 
SELECT A DAY
Number of Records: 172,848;   Date Range: 10/15/98 - 7/29/14
 
SHARE

PRINT THIS DATA

[ ← Previous Day ]
WEATHER ALMANAC - MAY 14, 2014
[ Next Day → ]
[ °C ]   °F
Weather ElementAverageHighLow
Temperature58.3 °F61 °F (12:53 am)55.9 °F (5:36 am)
Dewpoint54.2 °F57 °F (12:53 am)51.1 °F (3:53 am)
Humidity86.4 %90 % (12:00 pm)81 % (3:53 am)
Barometer29.99 in30.12 in (1:36 am)29.81 in (11:53 pm)
Wind Speed10.2 mph17.3 mph (5:53 pm)
Wind Gust24.2 mph (10:12 pm)
Weather ElementAverage
Visibility6.8 mi
Wind DirectionSSE (169.8 °)

Weather ElementTotal
Precipitation1.99 in
Heating Degree Days6.6 (Base 65)
Growing Degree Days8.5 (Base 50)
Averaged from 45 records on May 14, 2014
WEATHER CONDITIONS BREAKOUT
WIND DIRECTION BREAKOUT
WEATHER BY HOUR - MAY 14, 2014
[ °C ]   °F
Local TimeTemperatureDewpointHumidityBarometerVisibilityWind DirectionWind SpeedGust SpeedPrecipitationEventsConditions
12:53 AM61.0 °F57.0 °F87 %30.09 in10.0 miNNW (330°)10.4 mphOvercast
1:36 AM59.0 °F54.0 °F83 %30.12 in10.0 miNNW (330°)12.7 mphOvercast
1:53 AM59.0 °F54.0 °F83 %30.10 in10.0 miNNW (340°)11.5 mphOvercast
2:53 AM59.0 °F54.0 °F83 %30.10 in10.0 miNorth (350°)10.4 mphOvercast
3:53 AM57.0 °F51.1 °F81 %30.11 in10.0 miNorth (350°)11.5 mphMostly Cloudy
4:00 AM57.0 °F51.1 °F81 %30.11 in10.0 miNNW (340°)10.4 mphScattered Clouds
4:43 AM57.0 °F51.1 °F81 %30.12 in10.0 miNorth (350°)6.9 mphThunderstormMostly Cloudy
4:53 AM57.0 °F51.1 °F81 %30.11 in10.0 miNorth (10°)5.8 mphOvercast
5:36 AM55.9 °F51.1 °F84 %30.11 in10.0 miNorth (350°)8.1 mphOvercast
5:53 AM55.9 °F51.1 °F84 %30.10 in10.0 miNorth (350°)6.9 mphOvercast
6:53 AM55.9 °F51.1 °F84 %30.11 in10.0 miNorth (350°)6.9 mphOvercast
7:53 AM57.0 °F52.0 °F83 %30.10 in7.0 miNorth (10°)6.9 mphOvercast
8:53 AM57.0 °F52.0 °F83 %30.09 in5.0 miNNE (30°)8.1 mph0.02 inRainLight Rain
9:18 AM57.9 °F53.1 °F84 %30.09 in6.0 miNorth (10°)8.1 mph0.00 inHaze
9:30 AM57.9 °F53.1 °F84 %30.10 in6.0 miNorth (350°)9.2 mph0.00 inHaze
9:53 AM57.9 °F53.1 °F84 %30.10 in6.0 miNorth (350°)9.2 mph0.00 inHaze
11:28 AM57.9 °F54.0 °F87 %30.06 in3.0 miNNE (20°)10.4 mph0.10 inRainLight Rain
11:40 AM57.9 °F54.0 °F87 %30.06 in3.0 miNNE (20°)10.4 mph0.13 inRainRain
11:53 AM57.9 °F54.0 °F87 %30.05 in5.0 miNNE (30°)11.5 mph0.14 inRainLight Rain
12:00 PM57.9 °F55.0 °F90 %30.06 in5.0 miNE (40°)9.2 mph0.00 inRainLight Rain
12:53 PM59.0 °F55.0 °F87 %30.04 in5.0 miNorth (10°)4.6 mph0.05 inRainLight Rain
1:53 PM59.0 °F55.0 °F87 %30.02 in10.0 miNW (320°)9.2 mph0.01 inOvercast
2:53 PM59.0 °F55.9 °F90 %30.00 in3.0 miNorth (350°)13.8 mph0.01 inRainLight Rain
3:12 PM59.0 °F55.0 °F87 %29.99 in2.5 miNorth (360°)9.2 mph0.01 inRainLight Rain
3:31 PM59.0 °F55.9 °F90 %29.98 in3.0 miNorth (10°)9.2 mph0.01 inRainLight Rain
3:38 PM59.0 °F55.9 °F90 %29.98 in2.5 miNorth (10°)10.4 mph0.01 inRainLight Rain
3:50 PM59.0 °F55.4 °F88 %29.96 in3.0 miNorth (10°)10.4 mph0.01 inRainLight Rain
3:53 PM59.0 °F55.9 °F90 %29.96 in3.0 miNNE (20°)10.4 mph0.01 inRainLight Rain
4:22 PM59.0 °F55.9 °F90 %29.94 in2.5 miNNE (20°)13.8 mph0.01 inRainLight Rain
4:33 PM60.1 °F55.9 °F86 %29.93 in7.0 miNNE (30°)12.7 mph0.01 inRainLight Rain
4:44 PM60.1 °F55.9 °F86 %29.93 in10.0 miNNE (30°)10.4 mph0.01 inOvercast
5:53 PM60.1 °F55.0 °F83 %29.90 in10.0 miNNE (20°)17.3 mphOvercast
6:21 PM60.1 °F55.0 °F83 %29.88 in9.0 miNE (40°)13.8 mph0.02 inRainLight Rain
6:53 PM60.1 °F55.9 °F86 %29.86 in4.0 miNE (50°)8.1 mph0.08 inRainLight Rain
7:30 PM59.0 °F55.9 °F90 %29.85 in1.0 miNE (40°)16.1 mph0.31 inRainHeavy Rain
7:37 PM59.0 °F55.9 °F90 %29.86 in3.0 miSouth (170°)9.2 mph19.6 mph0.31 inRainLight Rain
7:53 PM59.0 °F55.9 °F90 %29.85 in10.0 miNorth (10°)9.2 mph0.32 inRainLight Rain
8:24 PM59.0 °F55.9 °F90 %29.85 in10.0 miVariable5.8 mph18.4 mph0.00 inRainLight Rain
8:53 PM59.0 °F55.9 °F90 %29.85 in6.0 miNorth (360°)10.4 mph0.09 inRainRain
9:37 PM57.9 °F55.0 °F90 %29.83 in9.0 miNorth (350°)10.4 mph0.08 inRainLight Rain
9:53 PM57.0 °F54.0 °F89 %29.83 in5.0 miNorth (350°)17.3 mph0.13 inRainRain
10:12 PM57.0 °F54.0 °F89 %29.84 in7.0 miNorth (350°)13.8 mph24.2 mph0.04 inRainLight Rain
10:25 PM57.0 °F53.1 °F87 %29.84 in6.0 miNorth (360°)13.8 mph0.07 inRainRain
11:11 PM55.9 °F53.1 °F90 %29.82 in10.0 miNorth (10°)8.1 mph0.00 inOvercast
11:53 PM57.0 °F54.0 °F89 %29.81 in10.0 miNE (50°)5.8 mph0.00 inRainLight Rain
Hourly data recorded from KGEZ, located miles away from Greensburg, Indiana







STORIES FROM OUR PARTNERS